GEOSCAN 5 (RS92S5)

Last updated on Sun Aug 09 2026 00:03:16 GMT+0000 (Coordinated Universal Time)

1 64891U 25155R 26220.59082806 .00008324 00000+0 25057-3 0 9994 2 64891 97.4581 190.4978 0006171 18.9909 341.1563 15.34601448 88851
UTC large
Height (km)
Speed (km/s)
/
Latitude / Longitude
Inclination (degrees)
Orbital Period (minutes)
Azimuth
Elevation
Range (km)
Doppler Factor

Next 0 passes for location: London (51.5072 / 0.1276)

No passes found over London.
GEOSCAN 5 (RS92S5)